Location: Houston
(29.7630°N, 95.3630°W)
Time: 20:52:42
(UTC-05:00)

Amateur Radio Satellites - All Passes

Search period start: 31 August 2015 20:22
Search period end: 01 September 2015 20:22
Location: Houston, 29.7630°N, 95.3630°W

Satellite Date Start Highest point End Downlink Frequencies (MHz)
Time Altitude Azimuth
STRAND 1 31 Aug 20:31:13 20:36:20 82° 284° (WNW) 20:41:28 437.568
CINEMA 3 31 Aug 20:47:40 20:51:05 21° 71° (ENE) 20:54:46 145.822/145.860
CUBESAT XI-V 31 Aug 20:49:22 20:50:43 11° 291° (WNW) 20:51:44 437.345
CUTE 1.7 + AOD 2 31 Aug 20:52:04 20:56:03 39° 75° (ENE) 21:00:03 437.475
BRITE-PL 31 Aug 20:54:13 20:58:08 35° 263° (W) 21:02:15 437.365/2234.400
SRMSAT 31 Aug 20:54:32 20:57:45 15° 197° (SSW) 21:00:51 437.500
CANX-2 31 Aug 21:05:43 21:09:59 69° 77° (ENE) 21:14:16 2200.000
PRISM 31 Aug 21:17:11 21:20:41 27° 287° (WNW) 21:24:08 437.425
HO-68 31 Aug 21:21:42 21:28:52 82° 256° (WSW) 21:36:05 435.675
GOMX 1 31 Aug 21:23:53 21:27:46 30° 265° (W) 21:31:49 467.674
SEEDS 31 Aug 21:27:26 21:31:42 88° 79° (E) 21:35:58 437.485
Oscar 11 31 Aug 21:33:12 21:36:43 25° 73° (ENE) 21:40:19 145.826/435.025
DOVE 4 31 Aug 21:37:39 21:41:49 38° 263° (W) 21:46:13 437.250
COMPASS 1 31 Aug 21:49:39 21:53:50 62° 260° (W) 21:58:00 437.405
AAUSAT CUBESAT 2 31 Aug 22:00:01 22:04:08 55° 260° (W) 22:08:15 437.432
YUBILEINY 31 Aug 22:13:38 22:22:22 73° 277° (W) 22:31:11 435.215
CUBEBUG 2 31 Aug 22:14:19 22:18:54 87° 258° (WSW) 22:23:37 437.445
ZACube-1 31 Aug 22:15:02 22:19:23 52° 76° (ENE) 22:23:52 437.345
Cosmos 2491 31 Aug 22:15:05 22:23:01 39° 271° (W) 22:30:49 435.465 / 435.565
FUNcube-1 31 Aug 22:20:25 22:24:49 58° 76° (ENE) 22:29:20 145.935
UWE-3 31 Aug 22:21:30 22:26:04 86° 74° (ENE) 22:30:43 435.000/436.395/437.385
CINEMA 3 31 Aug 22:24:08 22:28:07 28° 265° (W) 22:32:11 145.822/145.860
DELFI C3 31 Aug 22:24:43 22:28:44 70° 77° (ENE) 22:32:46 145.870
CUTE 1.7 + AOD 2 31 Aug 22:30:17 22:32:08 12° 268° (W) 22:33:44 437.475
ANTELSAT 31 Aug 22:51:11 22:53:38 15° 92° (E) 22:56:16 437.575/2403.000
Cosmos 2504 31 Aug 23:00:25 23:06:39 27° 86° (E) 23:13:30 435.465 / 435.565
HUMSAT D 31 Aug 23:00:40 23:04:56 66° 77° (ENE) 23:09:14 437.325/437.525
DX 1 31 Aug 23:00:46 23:04:40 34° 73° (ENE) 23:08:37 434.975-435.025
50 SAT 31 Aug 23:04:36 23:07:51 25° 74° (ENE) 23:11:12 437.505
Oscar 11 31 Aug 23:09:35 23:12:52 20° 266° (W) 23:16:00 145.826/435.025
ESTCUBE 1 31 Aug 23:10:09 23:13:18 20° 71° (ENE) 23:16:34 437.505/2401.250
UKube-1 31 Aug 23:13:14 23:17:19 44° 75° (ENE) 23:21:26 .
AUBIESAT-1 31 Aug 23:16:52 23:18:44 14° 96° (E) 23:20:44 437.475
M-CUBED/EXP-1 PRIME 31 Aug 23:21:25 23:24:13 20° 98° (E) 23:26:59 437.505
AISAT 31 Aug 23:22:31 23:26:35 39° 74° (ENE) 23:30:43 437.250
CUBEBUG 1 31 Aug 23:24:03 23:27:18 22° 72° (ENE) 23:30:41 437.445
QB50P2 31 Aug 23:34:45 23:37:19 16° 93° (E) 23:40:04 145.880/145.840
NANOSAT C BR1 31 Aug 23:35:52 23:38:20 16° 93° (E) 23:41:00 145.865
UNISAT 6 31 Aug 23:40:26 23:44:56 63° 100° (E) 23:49:18 437.425
QB50P1 31 Aug 23:48:45 23:52:09 23° 96° (E) 23:55:37 145.935-145.965
VELOX 1 31 Aug 23:50:23 23:54:46 86° 77° (ENE) 23:59:11 145.980
CUSAT 1 31 Aug 23:50:26 23:52:21 14° 85° (E) 23:54:42 437.405
ZACube-1 31 Aug 23:55:11 23:56:07 10° 270° (W) 23:56:41 437.345
BEESAT 3 31 Aug 23:59:00 00:00:31 12° 51° (NE) 00:02:13 437.485
TIGRISAT 01 Sep 00:09:03 00:13:31 60° 284° (WNW) 00:17:52 435.000
BEESAT 2 01 Sep 00:11:01 00:12:37 12° 51° (NE) 00:14:22 435.950
RS-15 01 Sep 00:14:46 00:22:38 20° 39° (NE) 00:31:18 29.354- 29.394
DANDE 01 Sep 00:18:32 00:20:23 15° 86° (E) 00:22:38 436.750
TISAT 1 01 Sep 00:24:15 00:26:51 17° 71° (ENE) 00:29:36 437.305
ANTELSAT 01 Sep 00:26:26 00:30:34 35° 286° (WNW) 00:34:34 437.575/2403.000
DX 1 01 Sep 00:38:36 00:41:03 14° 267° (W) 00:43:16 434.975-435.025
50 SAT 01 Sep 00:39:50 00:42:23 16° 266° (W) 00:44:46 437.505
ESTCUBE 1 01 Sep 00:46:07 00:50:00 28° 263° (W) 00:53:48 437.505/2401.250
POLYITAN 1 01 Sep 00:49:33 00:53:46 54° 284° (WNW) 00:57:56 437.675
AUBIESAT-1 01 Sep 00:50:26 00:53:34 24° 292° (WNW) 00:56:28 437.475
Cosmos 2504 01 Sep 00:50:47 00:58:27 49° 281° (WNW) 01:06:33 435.465 / 435.565
POPSAT HIP 1 01 Sep 00:52:09 00:56:20 52° 284° (WNW) 01:00:29 437.405
UKube-1 01 Sep 00:52:26 00:53:42 11° 268° (W) 00:54:40 .
DUCHIFAT 1 01 Sep 00:52:34 00:56:45 53° 284° (WNW) 01:00:53 145.980
SPROUT 01 Sep 00:54:20 00:58:36 79° 77° (ENE) 01:02:54 437.525
M-CUBED/EXP-1 PRIME 01 Sep 00:56:16 00:58:55 18° 294° (WNW) 01:01:20 437.505
BUGSAT 1 01 Sep 00:59:55 01:04:10 74° 284° (WNW) 01:08:26 437.445
CUBEBUG 1 01 Sep 01:00:08 01:03:34 22° 265° (W) 01:06:55 437.445
AISAT 01 Sep 01:01:14 01:03:22 13° 268° (W) 01:05:13 437.250
QB50P2 01 Sep 01:09:30 01:13:17 30° 286° (WNW) 01:16:59 145.880/145.840
NANOSAT C BR1 01 Sep 01:10:26 01:14:14 31° 286° (WNW) 01:17:58 145.865
SO-50 01 Sep 01:11:11 01:15:49 64° 115° (ESE) 01:20:38 436.795
BEESAT 01 Sep 01:16:18 01:17:05 11° 68° (ENE) 01:18:11 436.000
QB50P1 01 Sep 01:24:36 01:27:54 21° 288° (WNW) 01:31:03 145.935-145.965
CUSAT 1 01 Sep 01:31:36 01:34:32 22° 290° (WNW) 01:38:01 437.405
BEESAT 3 01 Sep 01:34:54 01:38:42 43° 246° (WSW) 01:42:26 437.485
SWISSCUBE 01 Sep 01:39:15 01:42:52 23° 71° (ENE) 01:46:38 437.505
Oscar 19 01 Sep 01:46:04 01:49:26 18° 93° (E) 01:53:01 437.125/150
BEESAT 2 01 Sep 01:47:05 01:50:54 43° 246° (WSW) 01:54:39 435.950
TISAT 1 01 Sep 01:58:44 02:02:24 28° 263° (W) 02:06:02 437.305
DANDE 01 Sep 02:01:24 02:03:26 15° 292° (WNW) 02:05:35 436.750
VERMONT LUNAR 01 Sep 02:10:08 02:12:08 17° 142° (SE) 02:14:11 437.305
PCSat 01 Sep 02:14:58 02:20:22 89° 287° (WNW) 02:25:50 145.827
ITUPSAT 1 01 Sep 02:16:42 02:21:21 54° 75° (ENE) 02:26:01 437.325
AIST 2 01 Sep 02:23:41 02:27:50 76° 62° (ENE) 02:31:55 435.215
RS-15 01 Sep 02:25:25 02:37:27 79° 62° (ENE) 02:49:47 29.354- 29.394
Gurwin Techsat 1B 01 Sep 02:28:44 02:31:03 13° 92° (E) 02:33:44 435.225
ITAMSAT 1 01 Sep 02:45:27 02:48:24 16° 93° (E) 02:51:38 435.822/435.867
BEESAT 01 Sep 02:49:46 02:54:29 61° 259° (W) 02:59:12 436.000
SO-50 01 Sep 02:54:37 02:56:54 13° 312° (NW) 02:58:57 436.795
JAS-2 01 Sep 02:59:49 03:02:49 14° 87° (E) 03:06:04 435.910
GONETS M04 01 Sep 03:01:20 03:09:33 51° 91° (E) 03:17:54
SWISSCUBE 01 Sep 03:16:32 03:20:37 27° 263° (W) 03:24:36 437.505
Oscar 19 01 Sep 03:24:07 03:28:57 39° 287° (WNW) 03:33:44 437.125/150
STARS 01 Sep 03:39:33 03:43:34 36° 74° (ENE) 03:47:39 437.465
VERMONT LUNAR 01 Sep 03:45:29 03:48:23 47° 333° (NNW) 03:51:17 437.305
Cosmos 2499 01 Sep 03:47:22 03:53:22 24° 85° (E) 04:00:00 435.465 / 435.565
ITUPSAT 1 01 Sep 03:58:11 03:59:36 11° 269° (W) 04:00:39 437.325
KKS-1 01 Sep 03:58:13 04:02:38 70° 259° (W) 04:07:05 437.445
Gurwin Techsat 1B 01 Sep 04:06:14 04:11:25 54° 285° (WNW) 04:16:34 435.225
MOZHAYETS 4 01 Sep 04:13:15 04:16:25 19° 72° (ENE) 04:19:44
AO-7 01 Sep 04:18:02 04:24:46 28° 97° (E) 04:31:44 29.400- 29.500
ITAMSAT 1 01 Sep 04:23:14 04:28:09 44° 287° (WNW) 04:33:03 435.822/435.867
PHONESAT 2.4 01 Sep 04:31:58 04:34:42 22° 142° (SE) 04:37:28 2401.200-2431.200
RS-15 01 Sep 04:40:13 04:49:08 23° 255° (WSW) 04:57:20 29.354- 29.394
JAS-2 01 Sep 04:42:01 04:48:45 65° 286° (WNW) 04:54:38 435.910
O/OREOS (USA 219) 01 Sep 04:44:36 04:46:17 12° 59° (ENE) 04:48:13 437.305
GONETS M04 01 Sep 04:59:36 05:06:46 27° 287° (WNW) 05:13:40
HORYU 2 01 Sep 05:06:55 05:11:20 61° 101° (E) 05:15:42 437.375
STARS 01 Sep 05:17:43 05:20:10 14° 267° (W) 05:22:23 437.465
VERMONT LUNAR 01 Sep 05:23:41 05:25:17 13° 349° (N) 05:26:50 437.305
Cosmos 2499 01 Sep 05:37:47 05:45:56 58° 280° (W) 05:54:34 435.465 / 435.565
MOZHAYETS 4 01 Sep 05:49:21 05:53:27 30° 263° (W) 05:57:29
CUBESAT XI-V 01 Sep 06:07:04 06:10:51 27° 73° (ENE) 06:14:43 437.345
PHONESAT 2.4 01 Sep 06:09:09 06:12:27 45° 334° (NNW) 06:15:44 2401.200-2431.200
AO-7 01 Sep 06:09:53 06:17:49 50° 291° (WNW) 06:25:39 29.400- 29.500
O/OREOS (USA 219) 01 Sep 06:21:37 06:26:04 49° 254° (WSW) 06:30:28 437.305
CUTE-I 01 Sep 06:49:30 06:53:44 25° 96° (E) 06:58:06 437.470
VERMONT LUNAR 01 Sep 07:01:32 07:02:31 11° 6° (N) 07:03:31 437.305
BRITE-PL 01 Sep 07:29:19 07:30:01 10° 89° (E) 07:31:13 437.365/2234.400
STRAND 1 01 Sep 07:40:58 07:46:03 77° 76° (ENE) 07:51:10 437.568
Cubesat XI-IV 01 Sep 07:43:43 07:49:03 87° 289° (WNW) 07:54:24 437.490
CUBESAT XI-V 01 Sep 07:44:44 07:48:17 21° 266° (W) 07:51:40 437.345
PHONESAT 2.4 01 Sep 07:48:43 07:50:52 16° 350° (N) 07:53:00 2401.200-2431.200
GOMX 1 01 Sep 07:56:00 07:57:17 11° 89° (E) 07:59:01 467.674
PRISM 01 Sep 08:00:22 08:04:29 88° 265° (W) 08:08:35 437.425
ISS 01 Sep 08:00:55 08:03:48 30° 130° (SE) 08:06:43 145.825
AIST 1 01 Sep 08:17:37 08:21:34 39° 93° (E) 08:25:33
CUTE-I 01 Sep 08:29:10 08:33:48 30° 288° (WNW) 08:38:22 437.470
YUBILEINY 01 Sep 08:31:42 08:39:55 43° 78° (ENE) 08:48:12 435.215
VERMONT LUNAR 01 Sep 08:37:00 08:39:35 26° 22° (NNE) 08:42:10 437.305
CUTE 1.7 + AOD 2 01 Sep 08:45:57 08:46:38 10° 91° (E) 08:47:38 437.475
HO-68 01 Sep 08:56:59 09:02:47 27° 96° (E) 09:08:47 435.675
CANX-2 01 Sep 08:58:03 09:00:55 18° 94° (E) 09:03:56 2200.000
BRITE-PL 01 Sep 09:03:27 09:09:03 77° 283° (WNW) 09:14:45 437.365/2234.400
Cosmos 2491 01 Sep 09:11:30 09:19:45 51° 91° (E) 09:28:05 435.465 / 435.565
SEEDS 01 Sep 09:18:26 09:21:41 22° 95° (E) 09:25:01 437.485
PHONESAT 2.4 01 Sep 09:27:38 09:29:37 15° 7° (N) 09:31:37 2401.200-2431.200
GOMX 1 01 Sep 09:30:26 09:35:55 70° 283° (WNW) 09:41:20 467.674
ISS 01 Sep 09:38:01 09:40:17 17° 323° (NW) 09:42:28 145.825
COMPASS 1 01 Sep 09:39:15 09:42:55 31° 97° (E) 09:46:37 437.405
DOVE 4 01 Sep 09:41:59 09:47:20 88° 285° (WNW) 09:52:33 437.250
AAUSAT CUBESAT 2 01 Sep 09:48:59 09:52:44 34° 98° (E) 09:56:30 437.432
SO-50 01 Sep 09:50:19 09:52:39 14° 49° (NE) 09:55:12 436.795
AIST 1 01 Sep 09:58:07 09:59:28 11° 287° (WNW) 10:00:32
AUBIESAT-1 01 Sep 09:59:07 10:00:27 11° 65° (ENE) 10:02:04 437.475
M-CUBED/EXP-1 PRIME 01 Sep 10:03:24 10:06:09 16° 66° (ENE) 10:09:07 437.505
DELFI C3 01 Sep 10:11:03 10:13:09 14° 93° (E) 10:15:26 145.870
ZACube-1 01 Sep 10:11:11 10:13:49 16° 93° (E) 10:16:37 437.345
CUBEBUG 2 01 Sep 10:12:05 10:16:12 32° 97° (E) 10:20:13 437.445
VERMONT LUNAR 01 Sep 10:13:16 10:16:01 34° 215° (SW) 10:18:45 437.305
FUNcube-1 01 Sep 10:16:07 10:19:02 18° 93° (E) 10:22:03 145.935
UWE-3 01 Sep 10:18:12 10:22:03 28° 96° (E) 10:25:52 435.000/436.395/437.385
CUTE 1.7 + AOD 2 01 Sep 10:18:48 10:22:48 42° 285° (WNW) 10:26:45 437.475
CINEMA 3 01 Sep 10:24:21 10:29:20 72° 283° (WNW) 10:34:06 145.822/145.860
YUBILEINY 01 Sep 10:28:56 10:36:33 32° 272° (W) 10:43:51 435.215
CUSAT 1 01 Sep 10:30:02 10:35:33 21° 70° (ENE) 10:41:32 437.405
CANX-2 01 Sep 10:33:20 10:36:50 25° 287° (WNW) 10:40:14 2200.000
UNISAT 6 01 Sep 10:33:29 10:37:23 28° 73° (ENE) 10:41:24 437.425
HO-68 01 Sep 10:43:54 10:50:41 45° 290° (WNW) 10:57:22 435.675
Cosmos 2504 01 Sep 10:44:55 10:52:37 41° 77° (ENE) 10:59:58 435.465 / 435.565
HUMSAT D 01 Sep 10:51:57 10:54:35 17° 93° (E) 10:57:22 437.325/437.525
SEEDS 01 Sep 10:54:13 10:57:22 20° 287° (WNW) 11:00:23 437.485
DANDE 01 Sep 11:00:42 11:06:55 26° 73° (ENE) 11:13:49 436.750
TIGRISAT 01 Sep 11:01:07 11:05:39 56° 76° (ENE) 11:10:17 435.000
Oscar 11 01 Sep 11:01:36 11:05:54 69° 282° (WNW) 11:10:08 145.826/435.025
PHONESAT 2.4 01 Sep 11:04:55 11:08:06 36° 23° (NNE) 11:11:17 2401.200-2431.200
UKube-1 01 Sep 11:08:36 11:10:12 12° 92° (E) 11:12:05 .
Cosmos 2491 01 Sep 11:09:46 11:16:59 27° 287° (WNW) 11:23:54 435.465 / 435.565
PCSat 01 Sep 11:09:53 11:13:53 21° 55° (NE) 11:18:02 145.827
COMPASS 1 01 Sep 11:15:57 11:18:21 15° 288° (WNW) 11:20:33 437.405
ANTELSAT 01 Sep 11:18:19 11:22:59 86° 260° (W) 11:27:42 437.575/2403.000
AISAT 01 Sep 11:20:51 11:22:41 13° 92° (E) 11:24:47 437.250
AAUSAT CUBESAT 2 01 Sep 11:25:57 11:28:03 13° 289° (WNW) 11:29:56 437.432
SO-50 01 Sep 11:28:51 11:33:41 60° 245° (WSW) 11:38:20 436.795
AUBIESAT-1 01 Sep 11:30:00 11:34:42 64° 256° (WSW) 11:39:23 437.475
M-CUBED/EXP-1 PRIME 01 Sep 11:35:59 11:40:34 45° 257° (WSW) 11:45:09 437.505
POLYITAN 1 01 Sep 11:36:14 11:40:19 48° 76° (ENE) 11:44:29 437.675
DUCHIFAT 1 01 Sep 11:38:36 11:42:38 48° 75° (ENE) 11:46:45 145.980
POPSAT HIP 1 01 Sep 11:38:36 11:42:42 50° 76° (ENE) 11:46:51 437.405
BUGSAT 1 01 Sep 11:44:15 11:47:49 31° 74° (ENE) 11:51:29 437.445
DELFI C3 01 Sep 11:44:49 11:48:16 28° 286° (WNW) 11:51:39 145.870
ZACube-1 01 Sep 11:46:18 11:50:17 32° 286° (WNW) 11:54:07 437.345
VELOX 1 01 Sep 11:47:17 11:50:59 26° 96° (E) 11:54:46 145.980
CUBEBUG 2 01 Sep 11:49:26 11:52:38 18° 289° (WNW) 11:55:36 437.445
FUNcube-1 01 Sep 11:51:33 11:55:24 28° 287° (WNW) 11:59:05 145.935
UWE-3 01 Sep 11:55:04 11:58:24 20° 289° (WNW) 12:01:31 435.000/436.395/437.385
QB50P2 01 Sep 11:55:33 11:59:48 89° 83° (E) 12:04:06 145.880/145.840
NANOSAT C BR1 01 Sep 11:56:08 12:00:21 86° 80° (E) 12:04:37 145.865
QB50P1 01 Sep 12:10:06 12:14:17 60° 259° (W) 12:18:31 145.935-145.965
UNISAT 6 01 Sep 12:10:31 12:14:08 22° 266° (W) 12:17:39 437.425
CUSAT 1 01 Sep 12:10:41 12:18:45 73° 265° (W) 12:26:46 437.405
JUGNU 01 Sep 12:15:06 12:19:10 19° 166° (SSE) 12:23:17 437.505
50 SAT 01 Sep 12:19:06 12:22:58 89° 299° (WNW) 12:26:46 437.505
HUMSAT D 01 Sep 12:26:46 12:30:21 27° 287° (WNW) 12:33:51 437.325/437.525
DX 1 01 Sep 12:30:39 12:34:55 51° 285° (WNW) 12:39:09 434.975-435.025
Cosmos 2504 01 Sep 12:37:25 12:44:38 32° 273° (W) 12:51:15 435.465 / 435.565
TIGRISAT 01 Sep 12:42:20 12:42:48 10° 270° (W) 12:42:53 435.000
UKube-1 01 Sep 12:42:28 12:46:33 40° 286° (WNW) 12:50:35 .
DANDE 01 Sep 12:42:31 12:50:25 61° 266° (W) 12:58:43 436.750
PHONESAT 2.4 01 Sep 12:42:55 12:45:56 29° 216° (SW) 12:48:55 2401.200-2431.200
ESTCUBE 1 01 Sep 12:43:56 12:48:26 84° 283° (WNW) 12:52:56 437.505/2401.250
SPROUT 01 Sep 12:47:38 12:50:57 22° 95° (E) 12:54:23 437.525
PCSat 01 Sep 12:52:25 12:57:29 40° 250° (WSW) 13:02:28 145.827
CUBEBUG 1 01 Sep 12:53:42 12:58:07 78° 283° (WNW) 13:02:32 437.445
AISAT 01 Sep 12:55:14 12:59:28 42° 286° (WNW) 13:03:40 437.250
Oscar 19 01 Sep 12:57:59 13:00:38 15° 68° (ENE) 13:03:34 437.125/150
GONETS M04 01 Sep 13:20:49 13:26:03 18° 69° (ENE) 13:31:54
BUGSAT 1 01 Sep 13:21:17 13:23:25 13° 267° (W) 13:25:21 437.445
VELOX 1 01 Sep 13:24:01 13:27:23 21° 288° (WNW) 13:30:39 145.980
SRMSAT 01 Sep 13:27:01 13:30:04 14° 163° (SSE) 13:33:14 437.500
Gurwin Techsat 1B 01 Sep 13:44:50 13:46:49 12° 68° (ENE) 13:49:09 435.225
TISAT 1 01 Sep 13:48:21 13:52:37 69° 101° (E) 13:56:51 437.305
ITAMSAT 1 01 Sep 13:58:33 14:00:57 14° 68° (ENE) 14:03:38 435.822/435.867
CUSAT 1 01 Sep 13:58:46 14:00:27 10° 275° (W) 14:01:18 437.405
JUGNU 01 Sep 14:02:38 14:07:43 29° 174° (S) 14:12:46 437.505
SPROUT 01 Sep 14:23:30 14:26:57 23° 288° (WNW) 14:30:18 437.525
ITUPSAT 1 01 Sep 14:24:01 14:27:41 23° 95° (E) 14:31:29 437.325
Oscar 19 01 Sep 14:34:37 14:39:36 50° 260° (W) 14:44:39 437.125/150
RS-15 01 Sep 14:35:09 14:40:28 16° 103° (ESE) 14:46:51 29.354- 29.394
JAS-2 01 Sep 14:45:33 14:52:03 34° 69° (ENE) 14:58:57 435.910
BEESAT 01 Sep 14:55:59 15:00:39 56° 100° (E) 15:05:19 436.000
AO-7 01 Sep 15:11:23 15:17:28 24° 63° (ENE) 15:23:51 29.400- 29.500
SRMSAT 01 Sep 15:13:55 15:18:44 26° 171° (S) 15:23:36 437.500
GONETS M04 01 Sep 15:15:05 15:23:53 75° 266° (W) 15:32:39
BEESAT 3 01 Sep 15:21:06 15:25:04 56° 299° (WNW) 15:29:04 437.485
Gurwin Techsat 1B 01 Sep 15:21:06 15:26:21 62° 259° (W) 15:31:37 435.225
SWISSCUBE 01 Sep 15:22:01 15:26:44 65° 284° (WNW) 15:31:25 437.505
BEESAT 2 01 Sep 15:34:15 15:38:15 54° 299° (WNW) 15:42:16 435.950
ITAMSAT 1 01 Sep 15:35:00 15:40:03 54° 259° (W) 15:45:07 435.822/435.867
Cosmos 2499 01 Sep 15:37:17 15:45:01 39° 76° (ENE) 15:52:22 435.465 / 435.565
STARS 01 Sep 15:37:38 15:38:41 11° 92° (E) 15:40:03 437.465
JUGNU 01 Sep 15:51:12 15:56:19 30° 184° (S) 16:01:23 437.505
KKS-1 01 Sep 15:55:30 15:59:38 36° 98° (E) 16:03:45 437.445
HORYU 2 01 Sep 15:59:35 16:03:18 27° 72° (ENE) 16:07:07 437.375
ITUPSAT 1 01 Sep 16:01:33 16:05:33 27° 288° (WNW) 16:09:27 437.325
ISS 01 Sep 16:09:16 16:12:03 26° 40° (NE) 16:14:51 145.825
AIST 2 01 Sep 16:15:27 16:19:39 71° 116° (ESE) 16:23:53 435.215
JAS-2 01 Sep 16:29:46 16:36:51 43° 263° (W) 16:44:11 435.910
BEESAT 01 Sep 16:36:27 16:38:05 11° 292° (WNW) 16:39:24 436.000
RS-15 01 Sep 16:40:49 16:51:42 89° 292° (WNW) 17:02:59 29.354- 29.394
AO-7 01 Sep 17:01:29 17:09:44 63° 257° (WSW) 17:17:59 29.400- 29.500
SRMSAT 01 Sep 17:02:18 17:07:28 32° 181° (S) 17:12:38 437.500
STARS 01 Sep 17:11:08 17:15:25 46° 285° (WNW) 17:19:38 437.465
Cosmos 2499 01 Sep 17:30:36 17:38:03 34° 272° (W) 17:44:52 435.465 / 435.565
KKS-1 01 Sep 17:33:14 17:35:59 16° 290° (WNW) 17:38:32 437.445
HORYU 2 01 Sep 17:36:31 17:39:55 20° 265° (W) 17:43:12 437.375
JUGNU 01 Sep 17:40:35 17:44:51 20° 194° (SSW) 17:49:03 437.505
ISS 01 Sep 17:46:02 17:48:21 18° 232° (SW) 17:50:34 145.825
MOZHAYETS 4 01 Sep 17:49:50 17:54:24 81° 283° (WNW) 17:58:56
CUTE-I 01 Sep 18:05:50 18:09:52 23° 70° (ENE) 18:14:03 437.470
CUBESAT XI-V 01 Sep 18:12:05 18:12:52 11° 91° (E) 18:14:00 437.345
O/OREOS (USA 219) 01 Sep 18:48:39 18:52:49 38° 104° (ESE) 18:57:03 437.305
SRMSAT 01 Sep 18:51:27 18:56:12 25° 190° (S) 19:00:55 437.500
RS-15 01 Sep 18:57:50 19:06:00 22° 320° (NW) 19:13:53 29.354- 29.394
Cubesat XI-IV 01 Sep 18:59:37 19:04:57 85° 79° (E) 19:10:18 437.490
HO-68 01 Sep 19:24:47 19:25:11 10° 60° (ENE) 19:26:12 435.675
Cosmos 2491 01 Sep 19:31:10 19:36:18 18° 69° (ENE) 19:42:03 435.465 / 435.565
CUTE-I 01 Sep 19:45:00 19:49:47 33° 262° (W) 19:54:30 437.470
CUBESAT XI-V 01 Sep 19:46:06 19:50:38 52° 285° (WNW) 19:55:10 437.345
PRISM 01 Sep 19:49:14 19:52:13 20° 96° (E) 19:55:20 437.425
STRAND 1 01 Sep 19:57:47 20:02:36 42° 99° (E) 20:07:27 437.568
AIST 1 01 Sep 20:07:50 20:12:10 84° 266° (W) 20:16:32
BRITE-PL 01 Sep 20:08:51 20:13:03 61° 76° (ENE) 20:17:34 437.365/2234.400
